Satellite: AO-40 Catalog number: 26609 Epoch time: 03002.48922454 Element set: 300 Inclination: 7.8950 deg RA of node: 72.8649 deg Eccentricity: 0.7933508 Arg of perigee: 128.8606 deg Mean anomaly: 331.3344 deg Mean motion: 1.25596303 rev/day Decay rate: -7.50000e-07 rev/day^2 Epoch rev: 999 Checksum: 310